DW8722 Weather Reports


time (UTC)temp
C
wind
direction
speed
KPH
gust
KPH
rain 1hr
cm
rain 24hr
cm
rain mn
cm
humidity
%
barometer
mb
20260508062858 13 126 0.0 0.0 0.00 0.00 0.00 90 1015.7
20260508061913 13 126 0.0 0.0 0.00 0.00 0.00 90 1015.7
20260508060901 13 126 0.0 0.0 0.00 0.00 0.00 90 1015.7
20260508055835 13 126 0.0 0.0 0.00 0.00 0.00 90 1015.7
20260508054859 13 126 0.0 0.0 0.00 0.00 0.00 90 1015.7
20260508053841 13 126 0.0 0.0 0.00 0.00 0.00 90 1015.9
20260508052813 13 126 0.0 0.0 0.00 0.00 0.00 89 1016.1
20260508050602 13 126 0.0 0.0 0.00 0.00 0.00 89 1015.9
20260508044421 13 126 0.0 0.0 0.00 0.00 0.00 87 1015.8
20260508043426 13 126 0.0 0.0 0.00 0.00 0.00 87 1015.8
20260508042429 13 136 0.0 0.0 0.00 0.00 0.00 87 1015.8
20260508041409 13 144 0.0 0.0 0.00 0.00 0.00 86 1015.9
20260508040335 14 144 0.0 0.0 0.00 0.00 0.00 85 1015.8
20260508034135 15 144 0.0 0.0 0.00 0.00 0.00 84 1015.7
20260508033152 15 144 0.0 0.0 0.00 0.00 0.00 84 1015.7
20260508032146 15 144 0.0 0.0 0.00 0.00 0.00 82 1015.7
20260508031204 15 144 0.0 0.0 0.00 0.00 0.00 82 1015.6
20260508030150 15 144 0.0 0.0 0.00 0.00 0.00 81 1015.6
20260508025146 16 144 0.0 0.0 0.00 0.00 0.00 80 1015.6
20260508024146 16 144 0.0 0.0 0.00 0.00 0.00 79 1015.4
20260508023113 16 144 0.0 0.0 0.00 0.00 0.00 78 1015.2
20260508022052 16 144 0.0 0.0 0.00 0.00 0.00 78 1015.2
20260508015919 17 144 0.0 0.0 0.00 0.00 0.00 77 1015.3
20260508014906 17 151 0.0 4.8 0.00 0.00 0.00 76 1015.1
20260508013901 17 145 1.6 6.4 0.00 0.00 0.00 75 1015.1
20260508012918 18 148 1.6 8.0 0.00 0.00 0.00 74 1015.0
20260508011938 18 160 3.2 8.0 0.00 0.00 0.00 73 1015.0
20260508010912 18 156 1.6 9.7 0.00 0.00 0.00 71 1014.8
20260508005844 19 168 4.8 14.5 0.00 0.00 0.00 69 1014.8
20260508004900 20 178 6.4 14.5 0.00 0.00 0.00 67 1014.8
20260508003925 20 173 0.0 9.7 0.00 0.00 0.00 62 1014.8
20260508001747 21 164 0.0 0.0 0.00 0.00 0.00 59 1015.0
20260508000742 21 173 0.0 0.0 0.00 0.00 0.00 59 1014.8
20260507235734 21 277 0.0 0.0 0.00 0.00 0.00 59 1014.8
20260507233622 21 301 0.0 0.0 0.00 0.00 0.00 54 1014.9
20260507232611 21 0 0.0 0.0 0.00 0.00 0.00 54 1014.9
20260507231539 21 355 0.0 1.6 0.00 0.00 0.00 52 1014.9
20260507230510 21 322 0.0 1.6 0.00 0.00 0.00 53 1015.1
20260507225521 21 12 0.0 0.0 0.00 0.00 0.00 53 1015.2
20260507223338 21 309 0.0 1.6 0.00 0.00 0.00 52 1015.4
20260507222329 22 53 0.0 3.2 0.00 0.00 0.00 49 1015.3
20260507221353 22 17 0.0 4.8 0.00 0.00 0.00 49 1015.5
20260507220343 22 15 0.0 6.4 0.00 0.00 0.00 48 1015.4
20260507215351 22 38 0.0 0.0 0.00 0.00 0.00 47 1015.4
20260507213224 22 239 0.0 0.0 0.00 0.00 0.00 46 1015.6
20260507212226 23 329 1.6 9.7 0.00 0.00 0.00 45 1015.7
20260507211201 23 29 0.0 4.8 0.00 0.00 0.00 47 1015.6
20260507210209 22 236 0.0 3.2 0.00 0.00 0.00 48 1015.7
20260507205218 23 0 4.8 16.1 0.00 0.00 0.00 46 1015.8
20260507204218 23 26 0.0 6.4 0.00 0.00 0.00 46 1015.9
20260507202045 23 0 1.6 12.9 0.00 0.00 0.00 49 1016.2
20260507201030 22 291 4.8 16.1 0.00 0.00 0.00 52 1016.3
20260507200027 22 308 4.8 16.1 0.00 0.00 0.00 50 1016.5
20260507193850 22 296 0.0 14.5 0.00 0.00 0.00 49 1016.7
20260507192831 22 29 6.4 19.3 0.00 0.00 0.00 51 1016.9
20260507191818 22 22 3.2 19.3 0.00 0.00 0.00 52 1016.9
20260507190812 22 355 6.4 14.5 0.00 0.00 0.00 52 1017.0
20260507185740 21 24 3.2 12.9 0.00 0.00 0.00 52 1017.1
20260507184800 21 351 4.8 17.7 0.00 0.00 0.00 55 1017.2
20260507183805 21 310 3.2 17.7 0.00 0.00 0.00 56 1017.5
20260507182747 21 60 3.2 17.7 0.00 0.00 0.00 57 1017.6
20260507181734 20 290 4.8 16.1 0.00 0.00 0.00 61 1017.8
20260507180710 20 355 6.4 16.1 0.00 0.00 0.00 60 1018.0
20260507174613 20 327 3.2 14.5 0.00 0.00 0.00 58 1018.5
20260507173559 20 317 1.6 14.5 0.00 0.00 0.00 59 1018.8
20260507172535 20 341 3.2 12.9 0.00 0.00 0.00 56 1019.1
20260507171536 19 76 4.8 12.9 0.00 0.00 0.00 58 1019.3
20260507165331 19 305 4.8 16.1 0.00 0.00 0.00 62 1019.5
20260507164328 18 339 4.8 11.3 0.00 0.00 0.00 60 1019.5
20260507163332 18 5 3.2 11.3 0.00 0.00 0.00 63 1019.7
20260507162343 18 313 1.6 8.0 0.00 0.00 0.00 67 1019.8
20260507161348 18 16 1.6 9.7 0.00 0.00 0.00 68 1019.8
20260507155212 17 71 0.0 0.0 0.00 0.03 0.00 69 1019.9
20260507154155 17 17 1.6 9.7 0.00 0.03 0.00 71 1020.0
20260507153150 16 49 0.0 3.2 0.00 0.03 0.00 75 1020.2
20260507152159 16 36 0.0 0.0 0.00 0.03 0.00 74 1020.3
20260507151159 16 39 1.6 6.4 0.00 0.03 0.00 75 1020.3
20260507145110 16 42 1.6 6.4 0.00 0.03 0.00 78 1020.4
20260507144048 15 62 0.0 4.8 0.00 0.03 0.00 80 1020.6
20260507143055 15 24 1.6 6.4 0.00 0.03 0.00 83 1020.7
20260507142114 14 48 0.0 4.8 0.00 0.03 0.00 86 1020.8
20260507135953 13 5 0.0 4.8 0.00 0.03 0.00 91 1020.9
20260507134957 12 355 0.0 0.0 0.00 0.03 0.00 92 1020.9
20260507134000 12 23 0.0 3.2 0.00 0.03 0.00 92 1021.0
20260507133000 11 0 0.0 0.0 0.00 0.03 0.00 91 1021.0
20260507132018 11 342 0.0 0.0 0.00 0.03 0.00 92 1020.9
20260507130954 10 305 0.0 0.0 0.00 0.03 0.00 92 1020.9
20260507125956 10 355 0.0 0.0 0.00 0.03 0.00 92 1020.8
20260507124951 10 248 0.0 0.0 0.00 0.03 0.00 92 1020.7
20260507124013 10 109 0.0 0.0 0.00 0.03 0.00 92 1020.6
20260507122957 9 163 0.0 0.0 0.00 0.03 0.00 92 1020.6
20260507121952 9 155 0.0 0.0 0.00 0.03 0.00 92 1020.4
20260507115758 8 259 0.0 0.0 0.00 0.03 0.00 92 1020.2
20260507113538 8 257 0.0 0.0 0.00 0.03 0.00 92 1019.8
20260507112537 8 264 0.0 0.0 0.00 0.03 0.00 92 1019.6
20260507111548 8 216 0.0 0.0 0.00 0.03 0.00 92 1019.4
20260507110543 8 203 0.0 0.0 0.00 0.03 0.00 92 1019.0
20260507105551 9 202 0.0 0.0 0.00 0.03 0.00 92 1019.0
20260507103434 9 327 0.0 0.0 0.00 0.03 0.00 92 1018.7
20260507102405 9 327 0.0 0.0 0.00 0.03 0.00 92 1018.4
20260507101410 9 327 0.0 0.0 0.00 0.03 0.00 92 1018.3
20260507095238 9 326 0.0 0.0 0.00 0.03 0.00 92 1018.4
20260507094219 10 326 0.0 0.0 0.00 0.03 0.00 92 1018.4
20260507093244 10 326 0.0 0.0 0.00 0.03 0.00 92 1018.4
20260507092242 10 326 0.0 0.0 0.00 0.03 0.00 92 1018.2
20260507091226 10 326 0.0 0.0 0.00 0.03 0.00 92 1018.2
20260507090225 10 326 0.0 0.0 0.00 0.03 0.00 92 1018.3
20260507085222 10 344 0.0 0.0 0.00 0.03 0.00 92 1018.3
20260507084203 10 344 0.0 0.0 0.00 0.03 0.00 91 1018.0
20260507083200 10 344 0.0 0.0 0.00 0.03 0.00 91 1018.0
20260507082208 10 344 0.0 3.2 0.00 0.03 0.00 91 1017.8
20260507081150 10 344 0.0 0.0 0.00 0.03 0.00 91 1017.8
20260507080145 10 345 0.0 0.0 0.00 0.03 0.00 91 1017.8
20260507075155 10 336 0.0 3.2 0.00 0.03 0.00 91 1018.0
20260507074211 10 327 0.0 3.2 0.00 0.03 0.00 91 1018.1
20260507072054 11 327 0.0 0.0 0.00 0.03 0.00 90 1018.2
20260507065949 11 20 0.0 0.0 0.00 0.03 0.00 90 1018.0
20260507065011 11 22 0.0 0.0 0.00 0.03 0.00 90 1018.1
20260507064024 11 22 0.0 3.2 0.00 0.03 0.00 89 1017.9